Location: Wiesbaden
(50.0830°N, 8.2500°E)
Time: 20:07:40
(UTC+02:00)

ISS - Pass Details

Date: 15 July 2019
Orbit: 409 x 418 km, 51.6° (Epoch: 20 July)

Event Time Altitude Azimuth Distance (km) Brightness Sun altitude
Exits shadow 02:20:42 - 270° (W) 1,658 -0.8 -17.5°
Reaches altitude 10° 02:21:07 10° 271° (W) 1,484 -1.1 -17.5°
Maximum altitude 02:24:26 66° 355° (N) 453 -3.5 -17.4°
Drops below altitude 10° 02:27:45 10° 78° (ENE) 1,481 -0.7 -17.3°
Sets 02:29:50 0° 82° (E) 2,342 0.3 -17.2°
